Tracking 19396 objects as of 12-Dec-2018
HD Live streaming from Space Station
objects crossing your sky now

BEIDOU 3M14

Track BEIDOU 3M14 now!


NORAD ID: 43623
Int'l Code: 2018-072B
Perigee: 21,525.5 km
Apogee: 21,544.7 km
Inclination: 55.0 °
Period: 773.2 minutes
Semi major axis: 27906 km
RCS: Unknown
Launch date: September 19, 2018
Source: People's Republic of China (PRC)
Launch site: Xichang Space Center, China (XSC)
aabbcc
Your satellite tracking list
Your tracking list is empty




NASA's NSSDC Master Catalog

Two Line Element Set (TLE):
1 43623U 18072B   18345.52752563 +.00000058 +00000-0 +00000-0 0  9995
2 43623 054.9913 154.5656 0003429 325.6001 048.4298 01.86231812001545
Source of the keplerian elements: AFSPC